Time,TemperatureF,DewpointF,PressureIn,WindDirection,WindDirectionDegrees,WindSpeedMPH,WindSpeedGustMPH,Humidity,HourlyPrecipIn,Conditions,Clouds,dailyrainin,SoftwareType,DateUTC
2013-08-25 00:01:00,62.6,59.0,29.93,SSE,149,0.0,6.0,88,0.00,,,0.00,meteohub,2013-08-25 07:01:00,
2013-08-25 00:06:00,62.6,59.0,29.93,SSE,149,0.0,4.0,88,0.00,,,0.00,meteohub,2013-08-25 07:06:00,
2013-08-25 00:11:00,62.8,59.2,29.94,SSE,149,2.0,3.0,88,0.00,,,0.00,meteohub,2013-08-25 07:11:00,
2013-08-25 00:16:00,62.8,59.2,29.94,SSE,165,3.0,6.0,88,0.00,,,0.00,meteohub,2013-08-25 07:16:00,
2013-08-25 00:21:00,62.8,59.2,29.94,South,177,3.0,6.0,88,0.00,,,0.00,meteohub,2013-08-25 07:21:00,
2013-08-25 00:26:00,62.8,59.5,29.94,SSE,161,7.0,7.0,89,0.00,,,0.00,meteohub,2013-08-25 07:26:00,
2013-08-25 00:31:00,62.8,59.5,29.94,SSE,152,4.0,9.0,89,0.00,,,0.00,meteohub,2013-08-25 07:31:00,
2013-08-25 00:36:00,63.0,59.7,29.94,South,175,5.0,9.0,89,0.00,,,0.00,meteohub,2013-08-25 07:36:00,
2013-08-25 00:41:00,63.0,59.9,29.94,South,179,8.0,9.0,90,0.00,,,0.00,meteohub,2013-08-25 07:41:00,
2013-08-25 00:46:00,63.0,59.9,29.94,SSW,192,8.0,9.0,90,0.00,,,0.00,meteohub,2013-08-25 07:46:00,
2013-08-25 00:51:00,63.0,60.3,29.93,SSE,168,7.0,10.0,91,0.00,,,0.00,meteohub,2013-08-25 07:51:00,
2013-08-25 00:56:00,62.8,60.1,29.93,SSW,197,7.0,10.0,91,0.00,,,0.00,meteohub,2013-08-25 07:56:00,
2013-08-25 01:01:00,62.4,59.7,29.93,SW,218,5.0,10.0,91,0.00,,,0.00,meteohub,2013-08-25 08:01:00,
2013-08-25 01:06:00,62.2,59.9,29.93,SSW,213,6.0,9.0,92,0.00,,,0.00,meteohub,2013-08-25 08:06:00,
2013-08-25 01:11:00,62.1,59.7,29.93,SSW,210,5.0,9.0,92,0.00,,,0.00,meteohub,2013-08-25 08:11:00,
2013-08-25 01:16:00,61.9,59.5,29.93,SSW,212,7.0,8.0,92,0.00,,,0.00,meteohub,2013-08-25 08:16:00,
2013-08-25 01:21:00,61.5,59.2,29.93,SSW,206,7.0,9.0,92,0.00,,,0.00,meteohub,2013-08-25 08:21:00,
2013-08-25 01:26:00,61.5,59.2,29.93,SSW,212,6.0,10.0,92,0.00,,,0.00,meteohub,2013-08-25 08:26:00,
2013-08-25 01:31:00,61.5,59.5,29.93,SSW,192,8.0,10.0,93,0.00,,,0.00,meteohub,2013-08-25 08:31:00,
2013-08-25 01:36:00,61.3,59.4,29.93,SSW,205,8.0,10.0,93,0.00,,,0.00,meteohub,2013-08-25 08:36:00,
2013-08-25 01:41:00,61.3,59.4,29.93,SSW,205,7.0,10.0,93,0.00,,,0.00,meteohub,2013-08-25 08:41:00,
2013-08-25 01:46:00,61.2,59.2,29.94,SSW,208,7.0,10.0,93,0.00,,,0.00,meteohub,2013-08-25 08:46:00,
2013-08-25 01:51:00,61.0,59.0,29.94,SSW,199,7.0,10.0,93,0.00,,,0.00,meteohub,2013-08-25 08:51:00,
2013-08-25 01:56:00,60.8,58.8,29.94,SSW,208,8.0,10.0,93,0.00,,,0.00,meteohub,2013-08-25 08:56:00,
2013-08-25 02:01:00,60.6,58.8,29.94,SSW,206,7.0,10.0,94,0.00,,,0.00,meteohub,2013-08-25 09:01:00,
2013-08-25 02:06:00,60.6,58.8,29.94,SSW,207,4.0,10.0,94,0.00,,,0.00,meteohub,2013-08-25 09:06:00,
2013-08-25 02:11:00,60.4,58.5,29.94,SSW,206,6.0,9.0,93,0.00,,,0.00,meteohub,2013-08-25 09:11:00,
2013-08-25 02:16:00,60.4,58.6,29.94,SSW,194,7.0,9.0,94,0.00,,,0.00,meteohub,2013-08-25 09:16:00,
2013-08-25 02:21:00,60.3,58.5,29.94,South,189,5.0,10.0,94,0.00,,,0.00,meteohub,2013-08-25 09:21:00,
2013-08-25 02:26:00,60.3,58.5,29.94,South,191,8.0,11.0,94,0.00,,,0.00,meteohub,2013-08-25 09:26:00,
2013-08-25 02:31:00,60.3,58.5,29.94,South,189,4.0,11.0,94,0.00,,,0.00,meteohub,2013-08-25 09:31:00,
2013-08-25 02:36:00,60.1,58.3,29.94,SSW,198,5.0,11.0,94,0.00,,,0.00,meteohub,2013-08-25 09:36:00,
2013-08-25 02:42:00,59.9,58.1,29.94,South,178,6.0,11.0,94,0.00,,,0.00,meteohub,2013-08-25 09:42:00,
2013-08-25 02:47:00,59.9,58.1,29.94,SSW,201,7.0,11.0,94,0.00,,,0.00,meteohub,2013-08-25 09:47:00,
2013-08-25 02:52:00,60.1,58.3,29.94,South,182,5.0,12.0,94,0.00,,,0.00,meteohub,2013-08-25 09:52:00,
2013-08-25 02:57:00,60.1,58.3,29.94,South,170,5.0,12.0,94,0.00,,,0.00,meteohub,2013-08-25 09:57:00,
2013-08-25 03:02:00,60.1,58.3,29.94,South,183,3.0,11.0,94,0.00,,,0.00,meteohub,2013-08-25 10:02:00,
2013-08-25 03:07:00,60.1,58.3,29.94,South,186,6.0,9.0,94,0.00,,,0.00,meteohub,2013-08-25 10:07:00,
2013-08-25 03:12:00,60.1,58.3,29.94,South,172,4.0,11.0,94,0.00,,,0.00,meteohub,2013-08-25 10:12:00,
2013-08-25 03:17:00,60.1,58.6,29.94,SSW,206,6.0,11.0,95,0.00,,,0.00,meteohub,2013-08-25 10:17:00,
2013-08-25 03:22:00,60.1,58.6,29.94,South,186,7.0,11.0,95,0.00,,,0.00,meteohub,2013-08-25 10:22:00,
2013-08-25 03:27:00,60.1,58.3,29.94,South,179,5.0,11.0,94,0.00,,,0.00,meteohub,2013-08-25 10:27:00,
2013-08-25 03:32:00,60.1,58.6,29.94,South,190,7.0,10.0,95,0.00,,,0.00,meteohub,2013-08-25 10:32:00,
2013-08-25 03:37:00,60.1,58.6,29.94,South,187,4.0,11.0,95,0.00,,,0.00,meteohub,2013-08-25 10:37:00,
2013-08-25 03:42:00,60.1,58.6,29.94,SSW,199,4.0,11.0,95,0.00,,,0.00,meteohub,2013-08-25 10:42:00,
2013-08-25 03:47:00,60.1,58.6,29.94,South,179,3.0,8.0,95,0.00,,,0.00,meteohub,2013-08-25 10:47:00,
2013-08-25 03:52:00,60.1,58.6,29.95,South,181,4.0,11.0,95,0.00,,,0.00,meteohub,2013-08-25 10:52:00,
2013-08-25 03:57:00,60.1,58.6,29.94,South,174,4.0,11.0,95,0.00,,,0.00,meteohub,2013-08-25 10:57:00,
2013-08-25 04:02:00,60.1,58.3,29.94,South,183,8.0,11.0,94,0.00,,,0.00,meteohub,2013-08-25 11:02:00,
2013-08-25 04:07:00,60.1,58.6,29.94,SSE,165,6.0,10.0,95,0.00,,,0.00,meteohub,2013-08-25 11:07:00,
2013-08-25 04:12:00,60.1,58.6,29.94,South,176,5.0,10.0,95,0.00,,,0.00,meteohub,2013-08-25 11:12:00,
2013-08-25 04:17:00,60.1,58.6,29.95,South,172,4.0,11.0,95,0.00,,,0.00,meteohub,2013-08-25 11:17:00,
2013-08-25 04:23:00,60.1,58.3,29.95,South,182,7.0,11.0,94,0.00,,,0.00,meteohub,2013-08-25 11:23:00,
2013-08-25 04:28:00,60.1,58.6,29.94,South,187,5.0,10.0,95,0.00,,,0.00,meteohub,2013-08-25 11:28:00,
2013-08-25 04:33:00,60.1,58.6,29.95,South,189,7.0,10.0,95,0.00,,,0.00,meteohub,2013-08-25 11:33:00,
2013-08-25 04:38:00,60.1,58.6,29.95,SSW,199,3.0,11.0,95,0.00,,,0.00,meteohub,2013-08-25 11:38:00,
2013-08-25 04:43:00,59.9,58.5,29.95,SSW,206,7.0,11.0,95,0.00,,,0.00,meteohub,2013-08-25 11:43:00,
2013-08-25 04:48:00,60.1,58.6,29.95,South,185,5.0,11.0,95,0.00,,,0.00,meteohub,2013-08-25 11:48:00,
2013-08-25 04:53:00,60.1,58.6,29.95,South,184,3.0,9.0,95,0.00,,,0.00,meteohub,2013-08-25 11:53:00,
2013-08-25 04:58:00,60.1,58.6,29.95,South,181,7.0,9.0,95,0.00,,,0.00,meteohub,2013-08-25 11:58:00,
2013-08-25 05:03:00,60.3,58.8,29.95,South,189,4.0,10.0,95,0.00,,,0.00,meteohub,2013-08-25 12:03:00,
2013-08-25 05:08:00,60.3,58.8,29.95,SSW,199,6.0,10.0,95,0.00,,,0.00,meteohub,2013-08-25 12:08:00,
2013-08-25 05:13:00,60.4,59.0,29.95,SSW,199,5.0,10.0,95,0.00,,,0.00,meteohub,2013-08-25 12:13:00,
2013-08-25 05:18:00,60.4,59.0,29.95,SSW,202,4.0,10.0,95,0.00,,,0.00,meteohub,2013-08-25 12:18:00,
2013-08-25 05:23:00,60.4,59.0,29.95,SSW,199,6.0,8.0,95,0.00,,,0.00,meteohub,2013-08-25 12:23:00,
2013-08-25 05:28:00,60.4,59.0,29.95,SSW,197,4.0,7.0,95,0.00,,,0.00,meteohub,2013-08-25 12:28:00,
2013-08-25 05:33:00,60.4,59.0,29.95,SSW,197,6.0,7.0,95,0.00,,,0.00,meteohub,2013-08-25 12:33:00,
2013-08-25 05:38:00,60.6,59.2,29.95,SSW,201,6.0,8.0,95,0.00,,,0.00,meteohub,2013-08-25 12:38:00,
2013-08-25 05:44:00,60.6,59.2,29.95,SSW,202,4.0,8.0,95,0.00,,,0.00,meteohub,2013-08-25 12:44:00,
2013-08-25 05:49:00,60.6,59.2,29.95,SSW,204,4.0,8.0,95,0.00,,,0.00,meteohub,2013-08-25 12:49:00,
2013-08-25 05:54:00,60.8,59.4,29.95,SSW,197,7.0,7.0,95,0.00,,,0.00,meteohub,2013-08-25 12:54:00,
2013-08-25 05:59:00,60.8,59.4,29.95,SSW,197,5.0,7.0,95,0.00,,,0.00,meteohub,2013-08-25 12:59:00,
2013-08-25 06:04:00,61.0,59.5,29.95,SSW,208,5.0,7.0,95,0.00,,,0.00,meteohub,2013-08-25 13:04:00,
2013-08-25 06:09:00,61.0,59.5,29.95,SSW,206,4.0,7.0,95,0.00,,,0.00,meteohub,2013-08-25 13:09:00,
2013-08-25 06:14:00,61.0,59.5,29.95,SSW,208,3.0,7.0,95,0.00,,,0.00,meteohub,2013-08-25 13:14:00,
2013-08-25 06:19:00,61.2,59.7,29.95,SSW,208,4.0,7.0,95,0.00,,,0.00,meteohub,2013-08-25 13:19:00,
2013-08-25 06:24:00,61.2,59.7,29.96,SSW,206,4.0,7.0,95,0.00,,,0.00,meteohub,2013-08-25 13:24:00,
2013-08-25 06:29:00,61.2,59.7,29.96,SSW,206,4.0,7.0,95,0.00,,,0.00,meteohub,2013-08-25 13:29:00,
2013-08-25 06:34:00,61.2,59.7,29.96,SW,216,5.0,7.0,95,0.00,,,0.00,meteohub,2013-08-25 13:34:00,
2013-08-25 06:39:00,61.2,59.7,29.96,SW,216,4.0,7.0,95,0.00,,,0.00,meteohub,2013-08-25 13:39:00,
2013-08-25 06:44:00,61.2,59.7,29.96,SW,216,3.0,7.0,95,0.00,,,0.00,meteohub,2013-08-25 13:44:00,
2013-08-25 06:49:00,61.2,59.7,29.96,SSW,192,5.0,7.0,95,0.00,,,0.00,meteohub,2013-08-25 13:49:00,
2013-08-25 06:54:00,61.2,59.7,29.96,SSW,193,2.0,6.0,95,0.00,,,0.00,meteohub,2013-08-25 13:54:00,
2013-08-25 07:00:00,61.2,59.7,29.96,SSW,195,5.0,6.0,95,0.00,,,0.00,meteohub,2013-08-25 14:00:00,
2013-08-25 07:05:00,61.2,59.7,29.96,SSW,197,5.0,7.0,95,0.00,,,0.00,meteohub,2013-08-25 14:05:00,
2013-08-25 07:10:00,61.2,59.7,29.96,SSW,198,4.0,7.0,95,0.00,,,0.00,meteohub,2013-08-25 14:10:00,
2013-08-25 07:15:00,61.0,59.5,29.96,SSW,201,4.0,7.0,95,0.00,,,0.00,meteohub,2013-08-25 14:15:00,
2013-08-25 07:20:00,61.0,59.5,29.96,SSW,201,6.0,7.0,95,0.00,,,0.00,meteohub,2013-08-25 14:20:00,
2013-08-25 07:25:00,61.0,59.5,29.97,SW,216,6.0,6.0,95,0.00,,,0.00,meteohub,2013-08-25 14:25:00,
2013-08-25 07:30:00,61.0,59.5,29.97,South,181,6.0,8.0,95,0.00,,,0.00,meteohub,2013-08-25 14:30:00,
2013-08-25 07:35:00,61.0,59.5,29.97,South,177,3.0,8.0,95,0.00,,,0.00,meteohub,2013-08-25 14:35:00,
2013-08-25 07:40:00,61.0,59.5,29.97,South,189,3.0,8.0,95,0.00,,,0.00,meteohub,2013-08-25 14:40:00,
2013-08-25 07:45:00,61.0,59.5,29.97,South,191,4.0,8.0,95,0.00,,,0.00,meteohub,2013-08-25 14:45:00,
2013-08-25 07:50:00,61.0,59.5,29.97,SSW,193,6.0,8.0,95,0.00,,,0.00,meteohub,2013-08-25 14:50:00,
2013-08-25 07:55:00,61.2,59.7,29.97,SSW,193,3.0,8.0,95,0.00,,,0.00,meteohub,2013-08-25 14:55:00,
2013-08-25 08:00:00,61.2,59.7,29.97,SSE,166,6.0,8.0,95,0.00,,,0.00,meteohub,2013-08-25 15:00:00,
2013-08-25 08:05:00,61.2,59.7,29.97,South,172,6.0,8.0,95,0.00,,,0.00,meteohub,2013-08-25 15:05:00,
2013-08-25 08:10:00,61.3,59.9,29.97,South,178,1.0,8.0,95,0.00,,,0.00,meteohub,2013-08-25 15:10:00,
2013-08-25 08:15:00,61.5,60.1,29.97,South,177,3.0,8.0,95,0.00,,,0.00,meteohub,2013-08-25 15:15:00,
2013-08-25 08:20:00,61.7,60.3,29.97,South,183,6.0,7.0,95,0.00,,,0.00,meteohub,2013-08-25 15:20:00,
2013-08-25 08:26:00,61.9,60.4,29.97,South,181,3.0,7.0,95,0.00,,,0.00,meteohub,2013-08-25 15:26:00,
2013-08-25 08:31:00,61.9,60.4,29.97,South,178,0.0,7.0,95,0.00,,,0.00,meteohub,2013-08-25 15:31:00,
2013-08-25 08:36:00,62.1,60.6,29.97,South,179,2.0,6.0,95,0.00,,,0.00,meteohub,2013-08-25 15:36:00,
2013-08-25 08:41:00,62.4,60.6,29.96,South,177,1.0,5.0,94,0.00,,,0.00,meteohub,2013-08-25 15:41:00,
2013-08-25 08:46:00,62.8,61.0,29.97,SSE,167,2.0,4.0,94,0.00,,,0.00,meteohub,2013-08-25 15:46:00,
2013-08-25 08:51:00,63.0,61.2,29.97,SSE,168,2.0,5.0,94,0.00,,,0.00,meteohub,2013-08-25 15:51:00,
2013-08-25 08:56:00,63.7,61.9,29.97,SSE,167,3.0,6.0,94,0.00,,,0.00,meteohub,2013-08-25 15:56:00,
2013-08-25 09:01:00,64.0,61.7,29.97,SSE,160,4.0,6.0,92,0.00,,,0.00,meteohub,2013-08-25 16:01:00,
2013-08-25 09:06:00,64.2,61.5,29.97,SE,145,6.0,7.0,91,0.00,,,0.00,meteohub,2013-08-25 16:06:00,
2013-08-25 09:11:00,64.0,61.3,29.97,SSE,164,4.0,7.0,91,0.00,,,0.00,meteohub,2013-08-25 16:11:00,
2013-08-25 09:16:00,63.9,60.8,29.97,SSE,168,4.0,7.0,90,0.00,,,0.00,meteohub,2013-08-25 16:16:00,
2013-08-25 09:21:00,63.9,61.2,29.97,SSE,161,4.0,8.0,91,0.00,,,0.00,meteohub,2013-08-25 16:21:00,
2013-08-25 09:26:00,63.9,60.8,29.97,SSE,164,5.0,9.0,90,0.00,,,0.00,meteohub,2013-08-25 16:26:00,
2013-08-25 09:31:00,64.0,61.0,29.97,SSE,157,6.0,9.0,90,0.00,,,0.00,meteohub,2013-08-25 16:31:00,
2013-08-25 09:36:00,64.2,61.2,29.97,SSE,156,7.0,9.0,90,0.00,,,0.00,meteohub,2013-08-25 16:36:00,
2013-08-25 09:41:00,64.2,61.2,29.97,South,172,6.0,9.0,90,0.00,,,0.00,meteohub,2013-08-25 16:41:00,
2013-08-25 09:46:00,64.6,61.5,29.97,SSE,160,6.0,9.0,90,0.00,,,0.00,meteohub,2013-08-25 16:46:00,
2013-08-25 09:52:00,64.9,61.7,29.98,SSW,195,6.0,9.0,89,0.00,,,0.00,meteohub,2013-08-25 16:52:00,
2013-08-25 09:57:00,64.8,61.5,29.97,SSW,199,6.0,10.0,89,0.00,,,0.00,meteohub,2013-08-25 16:57:00,
2013-08-25 10:02:00,64.8,61.5,29.98,SSW,204,6.0,10.0,89,0.00,,,0.00,meteohub,2013-08-25 17:02:00,
2013-08-25 10:07:00,64.8,61.5,29.98,SSW,204,7.0,11.0,89,0.00,,,0.00,meteohub,2013-08-25 17:07:00,
2013-08-25 10:12:00,64.8,61.5,29.98,South,191,7.0,11.0,89,0.00,,,0.00,meteohub,2013-08-25 17:12:00,
2013-08-25 10:17:00,64.8,61.5,29.98,SSW,200,8.0,11.0,89,0.00,,,0.00,meteohub,2013-08-25 17:17:00,
2013-08-25 10:22:00,64.9,61.7,29.98,South,179,6.0,10.0,89,0.00,,,0.00,meteohub,2013-08-25 17:22:00,
2013-08-25 10:27:00,65.5,61.9,29.98,SW,224,8.0,10.0,88,0.00,,,0.00,meteohub,2013-08-25 17:27:00,
2013-08-25 10:32:00,65.3,61.3,29.98,South,190,9.0,12.0,87,0.00,,,0.00,meteohub,2013-08-25 17:32:00,
2013-08-25 10:37:00,65.3,61.3,29.98,SSW,208,6.0,12.0,87,0.00,,,0.00,meteohub,2013-08-25 17:37:00,
2013-08-25 10:42:00,65.7,62.1,29.98,SSW,204,6.0,12.0,88,0.00,,,0.00,meteohub,2013-08-25 17:42:00,
2013-08-25 10:47:00,66.2,62.2,29.98,SSW,197,7.0,10.0,87,0.00,,,0.00,meteohub,2013-08-25 17:47:00,
2013-08-25 10:52:00,66.4,62.4,29.98,South,169,4.0,9.0,87,0.00,,,0.00,meteohub,2013-08-25 17:52:00,
2013-08-25 10:57:00,66.4,62.1,29.98,SSW,199,8.0,10.0,86,0.00,,,0.00,meteohub,2013-08-25 17:57:00,
2013-08-25 11:02:00,66.6,62.6,29.98,SSW,200,8.0,10.0,87,0.00,,,0.00,meteohub,2013-08-25 18:02:00,
2013-08-25 11:07:00,66.7,62.4,29.98,SSW,206,7.0,10.0,86,0.00,,,0.00,meteohub,2013-08-25 18:07:00,
2013-08-25 11:12:00,66.7,62.4,29.98,SSW,201,9.0,9.0,86,0.00,,,0.00,meteohub,2013-08-25 18:12:00,
2013-08-25 11:18:00,66.6,62.2,29.98,South,188,7.0,10.0,86,0.00,,,0.00,meteohub,2013-08-25 18:18:00,
2013-08-25 11:23:00,66.7,62.4,29.98,SSE,164,6.0,10.0,86,0.00,,,0.00,meteohub,2013-08-25 18:23:00,
2013-08-25 11:28:00,66.9,62.6,29.98,SSW,199,7.0,10.0,86,0.00,,,0.00,meteohub,2013-08-25 18:28:00,
2013-08-25 11:33:00,66.9,62.2,29.98,SSW,210,7.0,11.0,85,0.00,,,0.00,meteohub,2013-08-25 18:33:00,
2013-08-25 11:38:00,66.7,62.1,29.98,SSW,198,8.0,14.0,85,0.00,,,0.00,meteohub,2013-08-25 18:38:00,
2013-08-25 11:43:00,66.7,62.1,29.98,SW,215,8.0,14.0,85,0.00,,,0.00,meteohub,2013-08-25 18:43:00,
2013-08-25 11:48:00,66.7,62.4,29.98,South,181,9.0,14.0,86,0.00,,,0.00,meteohub,2013-08-25 18:48:00,
2013-08-25 11:53:00,67.3,62.2,29.98,SSW,206,12.0,13.0,84,0.00,,,0.00,meteohub,2013-08-25 18:53:00,
2013-08-25 11:58:00,67.1,62.1,29.97,SSW,206,9.0,13.0,84,0.00,,,0.00,meteohub,2013-08-25 18:58:00,
2013-08-25 12:03:00,66.9,62.2,29.98,SSW,204,7.0,13.0,85,0.00,,,0.00,meteohub,2013-08-25 19:03:00,
2013-08-25 12:08:00,68.0,63.0,29.98,SW,220,10.0,13.0,84,0.00,,,0.00,meteohub,2013-08-25 19:08:00,
2013-08-25 12:13:00,68.5,62.8,29.98,SSW,208,8.0,13.0,82,0.00,,,0.00,meteohub,2013-08-25 19:13:00,
2013-08-25 12:18:00,68.4,61.9,29.98,SW,220,9.0,12.0,80,0.00,,,0.00,meteohub,2013-08-25 19:18:00,
2013-08-25 12:23:00,68.4,62.2,29.97,SSW,206,9.0,11.0,81,0.00,,,0.00,meteohub,2013-08-25 19:23:00,
2013-08-25 12:28:00,68.5,62.8,29.97,SSW,200,7.0,11.0,82,0.00,,,0.00,meteohub,2013-08-25 19:28:00,
2013-08-25 12:33:00,68.9,63.1,29.97,SW,233,9.0,11.0,82,0.00,,,0.00,meteohub,2013-08-25 19:33:00,
2013-08-25 12:38:00,70.0,62.8,29.97,SW,235,11.0,11.0,78,0.00,,,0.00,meteohub,2013-08-25 19:38:00,
2013-08-25 12:43:00,69.3,62.8,29.97,South,191,8.0,12.0,80,0.00,,,0.00,meteohub,2013-08-25 19:43:00,
2013-08-25 12:49:00,69.3,62.4,29.97,SW,235,8.0,12.0,79,0.00,,,0.00,meteohub,2013-08-25 19:49:00,
2013-08-25 12:54:00,69.4,63.0,29.97,SW,226,7.0,14.0,80,0.00,,,0.00,meteohub,2013-08-25 19:54:00,
2013-08-25 12:59:00,69.4,63.0,29.97,SSW,213,5.0,16.0,80,0.00,,,0.00,meteohub,2013-08-25 19:59:00,
2013-08-25 13:04:00,70.3,63.5,29.97,SW,235,12.0,16.0,79,0.00,,,0.00,meteohub,2013-08-25 20:04:00,
2013-08-25 13:09:00,70.0,63.1,29.97,SSW,212,9.0,16.0,79,0.00,,,0.00,meteohub,2013-08-25 20:09:00,
2013-08-25 13:14:00,69.8,62.6,29.97,SW,230,8.0,15.0,78,0.00,,,0.00,meteohub,2013-08-25 20:14:00,
2013-08-25 13:19:00,70.2,63.0,29.97,SSW,213,10.0,15.0,78,0.00,,,0.00,meteohub,2013-08-25 20:19:00,
2013-08-25 13:24:00,69.3,62.8,29.97,SW,218,7.0,17.0,80,0.00,,,0.00,meteohub,2013-08-25 20:24:00,
2013-08-25 13:29:00,69.1,63.0,29.97,SSW,197,7.0,17.0,81,0.00,,,0.00,meteohub,2013-08-25 20:29:00,
2013-08-25 13:34:00,69.1,63.0,29.97,WSW,238,13.0,17.0,81,0.00,,,0.00,meteohub,2013-08-25 20:34:00,
2013-08-25 13:39:00,69.3,62.8,29.97,SW,218,14.0,15.0,80,0.00,,,0.00,meteohub,2013-08-25 20:39:00,
2013-08-25 13:44:00,69.4,63.3,29.97,SSW,213,6.0,14.0,81,0.00,,,0.00,meteohub,2013-08-25 20:44:00,
2013-08-25 13:49:00,69.6,63.1,29.97,SSW,210,7.0,14.0,80,0.00,,,0.00,meteohub,2013-08-25 20:49:00,
2013-08-25 13:54:00,69.6,63.1,29.97,SW,236,7.0,15.0,80,0.00,,,0.00,meteohub,2013-08-25 20:54:00,
2013-08-25 13:59:00,69.6,62.4,29.97,WSW,240,12.0,15.0,78,0.00,,,0.00,meteohub,2013-08-25 20:59:00,
2013-08-25 14:04:00,69.1,62.6,29.97,SW,222,9.0,15.0,80,0.00,,,0.00,meteohub,2013-08-25 21:04:00,
2013-08-25 14:09:00,69.1,62.6,29.97,SW,230,9.0,15.0,80,0.00,,,0.00,meteohub,2013-08-25 21:09:00,
2013-08-25 14:14:00,69.1,63.0,29.97,SSW,200,8.0,18.0,81,0.00,,,0.00,meteohub,2013-08-25 21:14:00,
2013-08-25 14:20:00,68.9,62.1,29.97,WSW,239,11.0,19.0,79,0.00,,,0.00,meteohub,2013-08-25 21:20:00,
2013-08-25 14:25:00,68.4,62.6,29.96,SW,218,12.0,19.0,82,0.00,,,0.00,meteohub,2013-08-25 21:25:00,
2013-08-25 14:30:00,68.5,62.1,29.96,WSW,242,10.0,19.0,80,0.00,,,0.00,meteohub,2013-08-25 21:30:00,
2013-08-25 14:35:00,68.5,62.1,29.96,WSW,239,15.0,19.0,80,0.00,,,0.00,meteohub,2013-08-25 21:35:00,
2013-08-25 14:40:00,68.7,62.6,29.96,SW,224,14.0,19.0,81,0.00,,,0.00,meteohub,2013-08-25 21:40:00,
2013-08-25 14:45:00,68.7,62.2,29.96,SW,225,9.0,19.0,80,0.00,,,0.00,meteohub,2013-08-25 21:45:00,
2013-08-25 14:50:00,68.5,62.4,29.96,South,176,11.0,18.0,81,0.00,,,0.00,meteohub,2013-08-25 21:50:00,
2013-08-25 14:55:00,68.7,62.2,29.96,South,191,10.0,18.0,80,0.00,,,0.00,meteohub,2013-08-25 21:55:00,
2013-08-25 15:00:00,68.5,62.1,29.96,SW,225,14.0,17.0,80,0.00,,,0.00,meteohub,2013-08-25 22:00:00,
2013-08-25 15:05:00,68.4,62.2,29.96,WSW,251,13.0,19.0,81,0.00,,,0.00,meteohub,2013-08-25 22:05:00,
2013-08-25 15:10:00,68.5,62.1,29.96,WSW,244,11.0,19.0,80,0.00,,,0.00,meteohub,2013-08-25 22:10:00,
2013-08-25 15:15:00,69.1,62.6,29.95,SW,214,13.0,21.0,80,0.00,,,0.00,meteohub,2013-08-25 22:15:00,
2013-08-25 15:20:00,68.7,61.9,29.95,WSW,241,18.0,22.0,79,0.00,,,0.00,meteohub,2013-08-25 22:20:00,
2013-08-25 15:25:00,68.5,62.1,29.95,SW,230,18.0,22.0,80,0.00,,,0.00,meteohub,2013-08-25 22:25:00,
2013-08-25 15:30:00,68.4,62.2,29.95,South,179,11.0,23.0,81,0.00,,,0.00,meteohub,2013-08-25 22:30:00,
2013-08-25 15:35:00,68.5,62.1,29.95,SW,235,15.0,23.0,80,0.00,,,0.00,meteohub,2013-08-25 22:35:00,
2013-08-25 15:40:00,68.2,62.1,29.95,SW,231,12.0,23.0,81,0.00,,,0.00,meteohub,2013-08-25 22:40:00,
2013-08-25 15:45:00,68.4,62.2,29.95,SSW,199,8.0,20.0,81,0.00,,,0.00,meteohub,2013-08-25 22:45:00,
2013-08-25 15:51:00,67.5,61.7,29.95,SSW,201,14.0,19.0,82,0.00,,,0.00,meteohub,2013-08-25 22:51:00,
2013-08-25 15:56:00,66.9,61.9,29.95,SSW,208,8.0,18.0,84,0.00,,,0.00,meteohub,2013-08-25 22:56:00,
2013-08-25 16:01:00,67.6,62.6,29.95,SW,233,8.0,15.0,84,0.00,,,0.00,meteohub,2013-08-25 23:01:00,
2013-08-25 16:06:00,68.4,62.6,29.95,SSW,207,7.0,15.0,82,0.00,,,0.00,meteohub,2013-08-25 23:06:00,
2013-08-25 16:11:00,68.5,62.4,29.95,SW,230,11.0,15.0,81,0.00,,,0.00,meteohub,2013-08-25 23:11:00,
2013-08-25 16:16:00,68.5,62.4,29.95,SW,222,3.0,15.0,81,0.00,,,0.00,meteohub,2013-08-25 23:16:00,
2013-08-25 16:21:00,69.1,63.0,29.96,SSE,149,2.0,15.0,81,0.00,,,0.00,meteohub,2013-08-25 23:21:00,
2013-08-25 16:26:00,68.4,62.2,29.96,SSE,160,4.0,15.0,81,0.00,,,0.00,meteohub,2013-08-25 23:26:00,
2013-08-25 16:31:00,67.5,62.1,29.95,South,182,3.0,11.0,83,0.00,,,0.00,meteohub,2013-08-25 23:31:00,
2013-08-25 16:36:00,67.5,62.4,29.96,SSE,154,5.0,11.0,84,0.00,,,0.00,meteohub,2013-08-25 23:36:00,
2013-08-25 16:41:00,67.3,61.9,29.95,South,170,7.0,12.0,83,0.00,,,0.00,meteohub,2013-08-25 23:41:00,
2013-08-25 16:46:00,67.3,62.2,29.96,SSE,156,7.0,12.0,84,0.00,,,0.00,meteohub,2013-08-25 23:46:00,
2013-08-25 16:51:00,66.9,61.9,29.96,South,177,5.0,10.0,84,0.00,,,0.00,meteohub,2013-08-25 23:51:00,
2013-08-25 16:56:00,66.9,61.9,29.95,South,180,8.0,12.0,84,0.00,,,0.00,meteohub,2013-08-25 23:56:00,
2013-08-25 17:01:00,66.7,62.1,29.96,South,174,6.0,12.0,85,0.00,,,0.00,meteohub,2013-08-26 00:01:00,
2013-08-25 17:06:00,66.2,61.5,29.96,SE,143,3.0,11.0,85,0.00,,,0.00,meteohub,2013-08-26 00:06:00,
2013-08-25 17:11:00,65.5,61.2,29.95,South,182,8.0,14.0,86,0.00,,,0.00,meteohub,2013-08-26 00:11:00,
2013-08-25 17:16:00,65.5,61.9,29.95,South,185,8.0,14.0,88,0.00,,,0.00,meteohub,2013-08-26 00:16:00,
2013-08-25 17:21:00,65.7,61.7,29.95,South,170,7.0,14.0,87,0.00,,,0.00,meteohub,2013-08-26 00:21:00,
2013-08-25 17:26:00,65.8,61.5,29.95,South,178,4.0,13.0,86,0.00,,,0.00,meteohub,2013-08-26 00:26:00,
2013-08-25 17:31:00,65.8,61.5,29.95,SSE,157,5.0,13.0,86,0.00,,,0.00,meteohub,2013-08-26 00:31:00,
2013-08-25 17:36:00,66.4,61.7,29.95,South,187,5.0,10.0,85,0.00,,,0.00,meteohub,2013-08-26 00:36:00,
2013-08-25 17:41:00,66.7,61.7,29.95,South,181,6.0,9.0,84,0.00,,,0.00,meteohub,2013-08-26 00:41:00,
2013-08-25 17:46:00,66.4,61.3,29.95,SSW,198,7.0,9.0,84,0.00,,,0.00,meteohub,2013-08-26 00:46:00,
2013-08-25 17:51:00,66.2,61.5,29.95,South,189,7.0,10.0,85,0.00,,,0.00,meteohub,2013-08-26 00:51:00,
2013-08-25 17:56:00,66.0,61.3,29.95,SSW,197,6.0,11.0,85,0.00,,,0.00,meteohub,2013-08-26 00:56:00,
2013-08-25 18:01:00,66.0,61.3,29.95,South,182,10.0,11.0,85,0.00,,,0.00,meteohub,2013-08-26 01:01:00,
2013-08-25 18:06:00,65.8,61.2,29.95,South,175,7.0,11.0,85,0.00,,,0.00,meteohub,2013-08-26 01:06:00,
2013-08-25 18:11:00,65.7,61.0,29.95,SSW,200,8.0,11.0,85,0.00,,,0.00,meteohub,2013-08-26 01:11:00,
2013-08-25 18:16:00,65.5,61.2,29.94,South,179,6.0,11.0,86,0.00,,,0.00,meteohub,2013-08-26 01:16:00,
2013-08-25 18:21:00,65.5,61.2,29.94,SW,219,7.0,11.0,86,0.00,,,0.00,meteohub,2013-08-26 01:21:00,
2013-08-25 18:26:00,65.7,61.0,29.94,SSW,201,8.0,11.0,85,0.00,,,0.00,meteohub,2013-08-26 01:26:00,
2013-08-25 18:31:00,65.8,60.8,29.94,South,188,7.0,11.0,84,0.00,,,0.00,meteohub,2013-08-26 01:31:00,
2013-08-25 18:37:00,65.8,60.8,29.94,SSW,201,4.0,11.0,84,0.00,,,0.00,meteohub,2013-08-26 01:37:00,
2013-08-25 18:42:00,66.2,61.2,29.94,SW,227,11.0,13.0,84,0.00,,,0.00,meteohub,2013-08-26 01:42:00,
2013-08-25 18:47:00,66.0,60.6,29.94,SSW,210,12.0,13.0,83,0.00,,,0.00,meteohub,2013-08-26 01:47:00,
2013-08-25 18:52:00,65.8,60.8,29.94,SSW,201,7.0,16.0,84,0.00,,,0.00,meteohub,2013-08-26 01:52:00,
2013-08-25 18:57:00,65.7,60.4,29.94,SW,215,7.0,16.0,83,0.00,,,0.00,meteohub,2013-08-26 01:57:00,
2013-08-25 19:02:00,65.8,60.6,29.94,SW,227,5.0,17.0,83,0.00,,,0.00,meteohub,2013-08-26 02:02:00,
2013-08-25 19:07:00,65.7,60.4,29.94,SW,226,9.0,17.0,83,0.00,,,0.00,meteohub,2013-08-26 02:07:00,
2013-08-25 19:12:00,65.5,60.3,29.94,WSW,248,11.0,15.0,83,0.00,,,0.00,meteohub,2013-08-26 02:12:00,
2013-08-25 19:17:00,65.3,60.1,29.95,SW,220,6.0,14.0,83,0.00,,,0.00,meteohub,2013-08-26 02:17:00,
2013-08-25 19:22:00,65.1,60.1,29.95,SW,230,6.0,14.0,84,0.00,,,0.00,meteohub,2013-08-26 02:22:00,
2013-08-25 19:27:00,64.9,59.9,29.95,SSW,199,7.0,13.0,84,0.00,,,0.00,meteohub,2013-08-26 02:27:00,
2013-08-25 19:32:00,64.8,59.9,29.95,SSW,194,6.0,13.0,84,0.00,,,0.00,meteohub,2013-08-26 02:32:00,
2013-08-25 19:37:00,64.4,59.7,29.95,South,187,11.0,14.0,85,0.00,,,0.00,meteohub,2013-08-26 02:37:00,
2013-08-25 19:42:00,64.2,59.5,29.95,South,181,9.0,15.0,85,0.00,,,0.00,meteohub,2013-08-26 02:42:00,
2013-08-25 19:47:00,64.0,59.7,29.95,SSW,200,4.0,15.0,86,0.00,,,0.00,meteohub,2013-08-26 02:47:00,
2013-08-25 19:52:00,64.0,59.7,29.95,SSW,205,4.0,15.0,86,0.00,,,0.00,meteohub,2013-08-26 02:52:00,
2013-08-25 19:57:00,63.7,59.7,29.95,SSW,201,5.0,14.0,87,0.00,,,0.00,meteohub,2013-08-26 02:57:00,
2013-08-25 20:02:00,63.7,59.7,29.96,SSW,193,5.0,13.0,87,0.00,,,0.00,meteohub,2013-08-26 03:02:00,
2013-08-25 20:07:00,63.5,59.5,29.96,SSW,208,10.0,13.0,87,0.00,,,0.00,meteohub,2013-08-26 03:07:00,
2013-08-25 20:12:00,63.3,59.4,29.96,SSW,203,7.0,13.0,87,0.00,,,0.00,meteohub,2013-08-26 03:12:00,
2013-08-25 20:17:00,63.1,59.5,29.96,South,173,4.0,13.0,88,0.00,,,0.00,meteohub,2013-08-26 03:17:00,
2013-08-25 20:22:00,63.1,59.9,29.96,South,190,6.0,11.0,89,0.00,,,0.00,meteohub,2013-08-26 03:22:00,
2013-08-25 20:27:00,63.0,59.4,29.96,South,188,8.0,10.0,88,0.00,,,0.00,meteohub,2013-08-26 03:27:00,
2013-08-25 20:32:00,63.0,59.7,29.96,South,189,7.0,9.0,89,0.00,,,0.00,meteohub,2013-08-26 03:32:00,
2013-08-25 20:37:00,63.0,59.7,29.96,South,177,4.0,10.0,89,0.00,,,0.00,meteohub,2013-08-26 03:37:00,
2013-08-25 20:42:00,63.0,59.7,29.96,South,182,6.0,10.0,89,0.00,,,0.00,meteohub,2013-08-26 03:42:00,
2013-08-25 20:47:00,63.0,59.7,29.96,South,187,6.0,10.0,89,0.00,,,0.00,meteohub,2013-08-26 03:47:00,
2013-08-25 20:52:00,63.0,59.7,29.96,South,191,2.0,8.0,89,0.00,,,0.00,meteohub,2013-08-26 03:52:00,
2013-08-25 20:57:00,62.8,59.5,29.96,SW,220,5.0,8.0,89,0.00,,,0.00,meteohub,2013-08-26 03:57:00,
2013-08-25 21:01:00,62.8,59.5,29.97,SW,226,3.0,9.0,89,0.00,,,0.00,meteohub,2013-08-26 04:01:00,
2013-08-25 21:03:00,62.8,59.5,29.97,SW,226,4.0,9.0,89,0.00,,,0.00,meteohub,2013-08-26 04:03:00,
2013-08-25 21:04:00,62.8,59.5,29.97,SW,224,4.0,9.0,89,0.00,,,0.00,meteohub,2013-08-26 04:04:00,
2013-08-25 21:05:00,62.8,59.5,29.97,SW,226,5.0,9.0,89,0.00,,,0.00,meteohub,2013-08-26 04:05:00,
2013-08-25 21:10:00,62.8,59.5,29.97,SW,233,5.0,11.0,89,0.00,,,0.00,meteohub,2013-08-26 04:10:00,
2013-08-25 21:15:00,63.0,59.7,29.97,SW,233,3.0,11.0,89,0.00,,,0.00,meteohub,2013-08-26 04:15:00,
2013-08-25 21:20:00,63.0,59.4,29.97,WSW,241,9.0,9.0,88,0.00,,,0.00,meteohub,2013-08-26 04:20:00,
2013-08-25 21:25:00,62.8,59.2,29.97,WSW,238,5.0,9.0,88,0.00,,,0.00,meteohub,2013-08-26 04:25:00,
2013-08-25 21:30:00,62.6,59.4,29.97,SW,236,8.0,10.0,89,0.00,,,0.00,meteohub,2013-08-26 04:30:00,
2013-08-25 21:35:00,62.4,59.2,29.97,SW,234,5.0,10.0,89,0.00,,,0.00,meteohub,2013-08-26 04:35:00,
2013-08-25 21:40:00,62.4,59.2,29.98,SW,233,6.0,12.0,89,0.00,,,0.00,meteohub,2013-08-26 04:40:00,
2013-08-25 21:45:00,62.4,59.2,29.98,SW,224,3.0,12.0,89,0.00,,,0.00,meteohub,2013-08-26 04:45:00,
2013-08-25 21:50:00,62.4,59.2,29.98,WSW,238,4.0,10.0,89,0.00,,,0.00,meteohub,2013-08-26 04:50:00,
2013-08-25 21:55:00,62.4,59.2,29.98,WSW,245,5.0,10.0,89,0.00,,,0.00,meteohub,2013-08-26 04:55:00,
2013-08-25 22:00:00,62.6,59.4,29.98,WSW,240,7.0,10.0,89,0.00,,,0.00,meteohub,2013-08-26 05:00:00,
2013-08-25 22:05:00,62.6,59.0,29.98,WSW,238,7.0,10.0,88,0.00,,,0.00,meteohub,2013-08-26 05:05:00,
2013-08-25 22:10:00,62.4,58.8,29.98,SW,235,7.0,10.0,88,0.00,,,0.00,meteohub,2013-08-26 05:10:00,
2013-08-25 22:15:00,62.4,58.8,29.99,SW,235,8.0,10.0,88,0.00,,,0.00,meteohub,2013-08-26 05:15:00,
2013-08-25 22:20:00,62.4,58.8,29.98,SSW,212,7.0,9.0,88,0.00,,,0.00,meteohub,2013-08-26 05:20:00,
2013-08-25 22:25:00,62.4,58.8,29.99,SW,231,6.0,9.0,88,0.00,,,0.00,meteohub,2013-08-26 05:25:00,
2013-08-25 22:30:00,62.4,58.8,29.99,SW,229,6.0,9.0,88,0.00,,,0.00,meteohub,2013-08-26 05:30:00,
2013-08-25 22:35:00,62.4,58.8,29.99,SW,233,6.0,9.0,88,0.00,,,0.00,meteohub,2013-08-26 05:35:00,
2013-08-25 22:40:00,62.6,59.0,29.99,WSW,240,6.0,9.0,88,0.00,,,0.00,meteohub,2013-08-26 05:40:00,
2013-08-25 22:45:00,62.4,58.5,29.99,SW,226,10.0,10.0,87,0.00,,,0.00,meteohub,2013-08-26 05:45:00,
2013-08-25 22:50:00,62.4,58.8,29.99,SW,222,11.0,11.0,88,0.00,,,0.00,meteohub,2013-08-26 05:50:00,
2013-08-25 22:55:00,62.4,58.8,29.99,SW,220,3.0,11.0,88,0.00,,,0.00,meteohub,2013-08-26 05:55:00,
2013-08-25 23:00:00,62.4,58.5,29.99,SW,235,7.0,11.0,87,0.00,,,0.00,meteohub,2013-08-26 06:00:00,
2013-08-25 23:06:00,62.4,58.5,29.99,SW,235,1.0,11.0,87,0.00,,,0.00,meteohub,2013-08-26 06:06:00,
2013-08-25 23:11:00,62.4,58.5,29.99,SW,235,4.0,9.0,87,0.00,,,0.00,meteohub,2013-08-26 06:11:00,
2013-08-25 23:16:00,62.2,58.3,29.99,SW,216,6.0,10.0,87,0.00,,,0.00,meteohub,2013-08-26 06:16:00,
2013-08-25 23:21:00,62.2,58.3,29.99,WSW,241,6.0,10.0,87,0.00,,,0.00,meteohub,2013-08-26 06:21:00,
2013-08-25 23:26:00,62.2,58.3,29.99,SW,235,7.0,12.0,87,0.00,,,0.00,meteohub,2013-08-26 06:26:00,
2013-08-25 23:31:00,62.2,58.3,29.99,WSW,238,5.0,12.0,87,0.00,,,0.00,meteohub,2013-08-26 06:31:00,
2013-08-25 23:36:00,62.2,58.3,29.99,SW,222,5.0,11.0,87,0.00,,,0.00,meteohub,2013-08-26 06:36:00,
2013-08-25 23:41:00,62.1,58.1,29.99,SW,224,5.0,11.0,87,0.00,,,0.00,meteohub,2013-08-26 06:41:00,
2013-08-25 23:46:00,62.1,58.1,29.99,SSW,212,6.0,10.0,87,0.00,,,0.00,meteohub,2013-08-26 06:46:00,
2013-08-25 23:51:00,62.1,58.1,29.99,SW,231,7.0,9.0,87,0.00,,,0.00,meteohub,2013-08-26 06:51:00,
2013-08-25 23:56:00,62.1,58.1,29.99,SW,228,5.0,8.0,87,0.00,,,0.00,meteohub,2013-08-26 06:56:00,